Location: R�serve Fauniques des Laurentides
(47.3100°N, 71.1900°W)
Time: 03:54:00
(UTC-04:00)

Amateur Radio Satellites - All Passes

Search period start: 26 April 2017 03:24
Search period end: 27 April 2017 03:24
Location: R�serve Fauniques des Laurentides, 47.3100°N, 71.1900°W

Satellite Date Start Highest point End Downlink Frequencies (MHz)
Time Altitude Azimuth
BEESAT 26 Apr 03:35:56 03:40:09 32° 264° (W) 03:44:25 436.000
MOZHAYETS 4 26 Apr 03:36:32 03:41:02 61° 259° (W) 03:45:34
KKS-1 26 Apr 03:55:08 03:59:23 44° 69° (ENE) 04:03:40 437.445
ITAMSAT 1 26 Apr 04:09:44 04:14:54 67° 103° (ESE) 04:20:03 435.822/435.867
ITUPSAT 1 26 Apr 04:18:08 04:20:39 14° 271° (W) 04:23:11 437.325
Gurwin Techsat 1B 26 Apr 04:20:52 04:24:49 22° 301° (WNW) 04:28:45 435.225
CUBESAT XI-V 26 Apr 04:24:58 04:29:36 78° 74° (ENE) 04:34:19 437.345
Oscar 19 26 Apr 04:27:26 04:29:32 12° 307° (NW) 04:31:37 437.125/150
STARS 26 Apr 04:29:17 04:33:29 44° 69° (ENE) 04:37:42 437.465
AO-7 26 Apr 04:59:47 05:08:08 85° 292° (WNW) 05:16:29 .
YUBILEINY 26 Apr 05:00:19 05:09:02 88° 279° (W) 05:17:49 435.215
PCSat 26 Apr 05:04:37 05:08:36 20° 326° (NW) 05:12:36 145.827
RS-15 26 Apr 05:17:04 05:20:42 12° 90° (E) 05:24:20 29.354- 29.394
KKS-1 26 Apr 05:32:42 05:36:09 22° 267° (W) 05:39:37 437.445
M-CUBED/EXP-1 PRIME 26 Apr 05:49:06 05:52:48 24° 57° (ENE) 05:56:31 437.505
ITAMSAT 1 26 Apr 05:50:10 05:53:53 20° 301° (WNW) 05:57:36 435.822/435.867
DOVE 4 26 Apr 05:51:50 05:55:36 24° 91° (E) 05:59:11 437.250
XW-2F 26 Apr 05:59:32 06:01:47 15° 91° (E) 06:04:02 145.980 - 146.000
CUBESAT XI-V 26 Apr 06:05:23 06:07:34 13° 273° (W) 06:09:47 437.345
STARS 26 Apr 06:06:41 06:10:03 21° 267° (W) 06:13:24 437.465
SO-50 26 Apr 06:12:00 06:15:43 24° 115° (ESE) 06:19:24 436.795
NUDT-PHONESAT 26 Apr 06:13:07 06:15:37 17° 92° (E) 06:18:08 437.300
STRAND 1 26 Apr 06:19:19 06:23:49 32° 65° (ENE) 06:28:19 437.568
XW-2D 26 Apr 06:47:35 06:51:20 55° 100° (E) 06:55:05 145.860 - 145.880
CUTE-I 26 Apr 06:51:23 06:56:34 49° 100° (E) 07:01:41 437.470
HO-68 26 Apr 06:53:11 06:57:48 18° 87° (E) 07:02:24 435.675
AO-7 26 Apr 06:53:33 06:59:51 25° 313° (NW) 07:06:10 .
XW-2B 26 Apr 06:54:28 06:58:16 64° 101° (E) 07:02:03 145.730 - 145.750
YUBILEINY 26 Apr 07:00:43 07:07:14 23° 302° (WNW) 07:13:47 435.215
LilacSat-2 26 Apr 07:04:35 07:08:27 89° 105° (ESE) 07:12:18 437.200
KAITUO 1B 26 Apr 07:05:47 07:09:34 70° 102° (ESE) 07:13:19 145.475/437.950
XW-2C 26 Apr 07:06:21 07:10:10 89° 103° (ESE) 07:14:00 145.795 - 145.815
RS-15 26 Apr 07:18:29 07:30:00 54° 113° (ESE) 07:41:47 29.354- 29.394
M-CUBED/EXP-1 PRIME 26 Apr 07:22:22 07:26:53 52° 254° (WSW) 07:31:29 437.505
DOVE 4 26 Apr 07:29:04 07:33:31 41° 291° (WNW) 07:37:41 437.250
XW-2F 26 Apr 07:32:32 07:36:11 47° 288° (WNW) 07:39:51 145.980 - 146.000
CUTE 1.7 + AOD 2 26 Apr 07:33:13 07:36:49 25° 94° (E) 07:40:23 437.475
NUDT-PHONESAT 26 Apr 07:46:14 07:49:43 39° 289° (WNW) 07:53:12 437.300
SO-50 26 Apr 07:51:25 07:55:55 51° 313° (NW) 08:00:22 436.795
SEEDS 26 Apr 07:54:28 07:58:10 28° 95° (E) 08:01:49 437.485
STRAND 1 26 Apr 07:58:12 08:02:55 38° 263° (W) 08:07:40 437.568
XW-2A 26 Apr 08:06:22 08:09:41 56° 101° (E) 08:12:59 145.665 - 145.685
UWE-3 26 Apr 08:20:08 08:23:28 23° 93° (E) 08:26:49 435.000/436.395/437.385
XW-2D 26 Apr 08:23:00 08:25:07 14° 298° (WNW) 08:27:14 145.860 - 145.880
XW-2B 26 Apr 08:30:14 08:31:59 13° 299° (WNW) 08:33:44 145.730 - 145.750
CUBEBUG 2 26 Apr 08:31:30 08:35:31 46° 99° (E) 08:39:34 437.445
Tancredo 1 26 Apr 08:31:38 08:34:11 23° 140° (SE) 08:36:42 437.200
CUTE-I 26 Apr 08:31:56 08:36:21 27° 298° (WNW) 08:40:44 437.470
PRISM 26 Apr 08:32:09 08:35:23 22° 64° (ENE) 08:38:37 437.425
TIGRISAT 26 Apr 08:33:41 08:36:01 14° 60° (ENE) 08:38:20 435.000
PCSat 26 Apr 08:38:23 08:40:25 12° 19° (NNE) 08:42:27 145.827
HO-68 26 Apr 08:39:18 08:46:32 86° 105° (ESE) 08:53:46 435.675
KAITUO 1B 26 Apr 08:41:40 08:43:03 12° 299° (WNW) 08:44:26 145.475/437.950
ISS 26 Apr 08:47:53 08:50:40 26° 141° (SE) 08:53:27 437.550
UNISAT 6 26 Apr 08:53:25 08:56:51 23° 64° (ENE) 09:00:15 437.425
AAUSAT CUBESAT 2 26 Apr 09:03:58 09:08:11 74° 102° (ESE) 09:12:22 437.432
CUTE 1.7 + AOD 2 26 Apr 09:08:48 09:12:43 35° 291° (WNW) 09:16:36 437.475
ZACube-1 26 Apr 09:16:29 09:20:36 51° 100° (E) 09:24:45 437.345
FO-29 26 Apr 09:22:51 09:28:37 42° 67° (ENE) 09:33:49 435.910
AO-73 26 Apr 09:23:42 09:27:50 55° 100° (E) 09:32:02 145.935
SEEDS 26 Apr 09:30:04 09:33:51 31° 292° (WNW) 09:37:37 437.485
RS-15 26 Apr 09:30:27 09:42:30 61° 319° (NW) 09:54:49 29.354- 29.394
SO-50 26 Apr 09:34:51 09:37:24 15° 335° (NNW) 09:39:56 436.795
Oscar 11 26 Apr 09:39:59 09:44:20 69° 101° (ESE) 09:48:40 .
XW-2A 26 Apr 09:40:58 09:42:00 11° 298° (WNW) 09:43:01 145.665 - 145.685
DELFI C3 26 Apr 09:53:37 09:57:10 29° 96° (E) 10:00:39 145.870
UWE-3 26 Apr 09:56:12 10:00:03 37° 291° (WNW) 10:03:56 435.000/436.395/437.385
PRISM 26 Apr 10:06:30 10:10:26 40° 261° (W) 10:14:23 437.425
Tancredo 1 26 Apr 10:06:46 10:09:52 68° 339° (NNW) 10:12:58 437.200
TIGRISAT 26 Apr 10:07:50 10:12:12 72° 258° (WSW) 10:16:30 435.000
CUBEBUG 2 26 Apr 10:08:55 10:11:52 19° 297° (WNW) 10:14:49 437.445
EO-79 26 Apr 10:10:54 10:12:49 13° 59° (ENE) 10:14:44 145.935-145.965
DUCHIFAT 1 26 Apr 10:14:09 10:15:33 11° 58° (ENE) 10:16:58 145.980
PCSat 26 Apr 10:20:37 10:25:34 34° 44° (NE) 10:30:28 145.827
ISS 26 Apr 10:23:42 10:26:57 65° 340° (NNW) 10:30:11 437.550
HO-68 26 Apr 10:28:01 10:33:29 24° 308° (NW) 10:38:57 435.675
UNISAT 6 26 Apr 10:29:14 10:33:22 40° 262° (W) 10:37:27 437.425
AAUSAT CUBESAT 2 26 Apr 10:41:01 10:43:05 14° 300° (WNW) 10:45:08 437.432
O/OREOS (USA 219) 26 Apr 10:41:12 10:45:45 66° 112° (ESE) 10:50:21 437.305
OBJECT BX 26 Apr 10:42:37 10:46:18 80° 104° (ESE) 10:49:58 145.990 - 145.960
POLYITAN 1 26 Apr 10:47:59 10:51:34 28° 67° (ENE) 10:55:11 437.675
ZACube-1 26 Apr 10:53:40 10:56:33 18° 297° (WNW) 10:59:27 437.345
QB50P2 26 Apr 10:54:17 10:58:06 35° 68° (ENE) 11:01:57 145.880/145.840
ESTCUBE 1 26 Apr 11:00:10 11:02:04 12° 88° (E) 11:03:58 437.505/2401.250
AO-73 26 Apr 11:00:58 11:03:42 17° 298° (WNW) 11:06:27 145.935
FO-29 26 Apr 11:08:11 11:13:48 34° 263° (W) 11:18:54 435.910
AIST 2D 26 Apr 11:14:25 11:17:54 88° 260° (W) 11:21:25 435.315
NANOSAT C BR1 26 Apr 11:16:27 11:20:30 49° 71° (ENE) 11:24:34 145.865
BUGSAT 1 26 Apr 11:16:37 11:19:17 17° 62° (ENE) 11:21:56 437.445
Oscar 11 26 Apr 11:17:28 11:19:57 15° 300° (WNW) 11:22:26 .
DELFI C3 26 Apr 11:28:27 11:31:52 27° 293° (WNW) 11:35:15 145.870
Tancredo 1 26 Apr 11:43:12 11:46:05 34° 359° (N) 11:48:59 437.200
EO-79 26 Apr 11:43:46 11:48:00 79° 258° (WSW) 11:52:14 145.935-145.965
DUCHIFAT 1 26 Apr 11:46:22 11:50:34 89° 262° (W) 11:54:47 145.980
RS-15 26 Apr 11:47:06 11:58:09 35° 350° (N) 12:09:08 29.354- 29.394
LO-87 26 Apr 11:48:10 11:51:44 66° 101° (ESE) 11:55:16 145.935 - 145.965
AO-85 26 Apr 11:53:41 11:55:43 13° 111° (ESE) 11:57:42 145.980
ISS 26 Apr 12:00:42 12:03:45 36° 359° (N) 12:06:49 437.550
PCSat 26 Apr 12:03:56 12:09:10 50° 244° (WSW) 12:14:23 145.827
OBJECT BX 26 Apr 12:19:20 12:19:25 10° 300° (WNW) 12:19:29 145.990 - 145.960
SPROUT 26 Apr 12:20:35 12:23:51 21° 93° (E) 12:27:06 437.525
O/OREOS (USA 219) 26 Apr 12:22:18 12:25:38 19° 312° (NW) 12:28:59 437.305
AO-7 26 Apr 12:23:22 12:27:09 14° 35° (NE) 12:30:54 .
POLYITAN 1 26 Apr 12:23:34 12:27:18 30° 264° (W) 12:31:03 437.675
Gurwin Techsat 1B 26 Apr 12:26:06 12:30:10 23° 60° (ENE) 12:34:14 435.225
50 SAT 26 Apr 12:26:45 12:28:22 13° 91° (E) 12:29:58 437.505
Oscar 19 26 Apr 12:27:17 12:31:56 35° 65° (ENE) 12:36:37 437.125/150
QB50P2 26 Apr 12:30:29 12:33:58 25° 266° (W) 12:37:28 145.880/145.840
ESTCUBE 1 26 Apr 12:34:53 12:39:27 80° 286° (WNW) 12:44:00 437.505/2401.250
VELOX 1 26 Apr 12:50:04 12:54:20 44° 99° (E) 12:58:32 145.980
BUGSAT 1 26 Apr 12:50:11 12:54:15 54° 259° (W) 12:58:19 437.445
NANOSAT C BR1 26 Apr 12:53:40 12:56:30 17° 269° (W) 12:59:20 145.865
SO-50 26 Apr 12:59:45 13:02:22 15° 25° (NNE) 13:04:57 436.795
UKube-1 26 Apr 13:11:46 13:15:04 21° 93° (E) 13:18:21 .
YUBILEINY 26 Apr 13:11:47 13:15:55 14° 48° (NE) 13:20:04 435.215
Tancredo 1 26 Apr 13:19:17 13:22:21 56° 18° (NNE) 13:25:25 437.200
LO-87 26 Apr 13:23:35 13:24:40 11° 299° (WNW) 13:25:46 145.935 - 145.965
AO-85 26 Apr 13:31:23 13:35:37 76° 310° (NW) 13:39:38 145.980
ISS 26 Apr 13:37:21 13:40:35 62° 19° (NNE) 13:43:49 437.550
DX 1 26 Apr 13:43:12 13:47:33 61° 102° (ESE) 13:51:51 434.975-435.025
ITAMSAT 1 26 Apr 13:53:05 13:57:03 23° 60° (ENE) 14:01:01 435.822/435.867
SPROUT 26 Apr 13:55:56 13:59:56 40° 290° (WNW) 14:03:54 437.525
50 SAT 26 Apr 13:58:12 14:01:35 47° 288° (WNW) 14:04:56 437.505
RS-15 26 Apr 14:03:11 14:14:46 42° 24° (NNE) 14:26:01 29.354- 29.394
Gurwin Techsat 1B 26 Apr 14:04:27 14:09:41 61° 258° (WSW) 14:14:59 435.225
Oscar 19 26 Apr 14:06:31 14:11:13 35° 264° (W) 14:15:59 437.125/150
AO-7 26 Apr 14:10:09 14:17:52 46° 58° (ENE) 14:25:37 .
ESTCUBE 1 26 Apr 14:13:58 14:15:29 12° 304° (NW) 14:17:00 437.505/2401.250
BEESAT 2 26 Apr 14:15:26 14:18:44 26° 116° (ESE) 14:22:05 435.950
BEESAT 3 26 Apr 14:16:38 14:20:33 64° 123° (ESE) 14:24:31 437.485
VELOX 1 26 Apr 14:27:04 14:30:31 23° 297° (WNW) 14:33:57 145.980
ITUPSAT 1 26 Apr 14:36:04 14:38:49 15° 89° (E) 14:41:33 437.325
SO-50 26 Apr 14:39:22 14:43:49 55° 48° (NE) 14:48:14 436.795
UKube-1 26 Apr 14:47:11 14:51:17 43° 291° (WNW) 14:55:21 .
Tancredo 1 26 Apr 14:55:22 14:58:09 30° 217° (SW) 15:00:55 437.200
YUBILEINY 26 Apr 15:06:32 15:15:09 56° 74° (ENE) 15:23:44 435.215
ISS 26 Apr 15:14:04 15:16:54 28° 218° (SW) 15:19:44 437.550
AO-85 26 Apr 15:14:14 15:16:39 15° 329° (NNW) 15:19:01 145.980
DX 1 26 Apr 15:20:28 15:23:17 17° 300° (WNW) 15:26:06 434.975-435.025
MOZHAYETS 4 26 Apr 15:28:34 15:32:23 25° 93° (E) 15:36:10
ITAMSAT 1 26 Apr 15:31:00 15:36:07 59° 259° (WSW) 15:41:15 435.822/435.867
BEESAT 26 Apr 15:31:59 15:36:38 50° 100° (E) 15:41:15 436.000
BEESAT 2 26 Apr 15:52:34 15:56:20 39° 315° (NW) 16:00:10 435.950
BEESAT 3 26 Apr 15:55:27 15:58:31 21° 324° (NW) 16:01:36 437.485
AO-7 26 Apr 16:02:38 16:10:35 50° 259° (W) 16:18:37 .
ITUPSAT 1 26 Apr 16:12:23 16:17:10 72° 288° (WNW) 16:21:55 437.325
RS-15 26 Apr 16:16:38 16:29:03 89° 55° (NE) 16:40:52 29.354- 29.394
CUBESAT XI-V 26 Apr 16:19:25 16:22:20 16° 89° (E) 16:25:13 437.345
SO-50 26 Apr 16:20:28 16:23:56 22° 246° (WSW) 16:27:24 436.795
CUTE-I 26 Apr 16:38:41 16:42:16 19° 57° (ENE) 16:45:52 437.470
XW-2F 26 Apr 16:44:28 16:46:02 12° 61° (ENE) 16:47:37 145.980 - 146.000
NUDT-PHONESAT 26 Apr 16:56:21 16:58:12 13° 62° (ENE) 17:00:02 437.300
DOVE 4 26 Apr 16:59:02 17:03:54 38° 68° (ENE) 17:08:39 437.250
YUBILEINY 26 Apr 17:03:50 17:11:38 38° 276° (W) 17:19:27 435.215
MOZHAYETS 4 26 Apr 17:05:21 17:09:40 40° 291° (WNW) 17:13:59
BEESAT 26 Apr 17:10:25 17:14:07 23° 298° (WNW) 17:17:48 436.000
KKS-1 26 Apr 17:19:01 17:23:24 56° 101° (E) 17:27:45 437.445
HO-68 26 Apr 17:25:55 17:31:02 22° 51° (NE) 17:36:09 435.675
XW-2D 26 Apr 17:31:41 17:35:12 40° 71° (ENE) 17:38:45 145.860 - 145.880
BEESAT 2 26 Apr 17:34:09 17:35:11 11° 337° (NNW) 17:36:13 435.950
XW-2B 26 Apr 17:38:33 17:42:07 46° 72° (ENE) 17:45:45 145.730 - 145.750
KAITUO 1B 26 Apr 17:48:35 17:52:10 49° 72° (ENE) 17:55:46 145.475/437.950
LilacSat-2 26 Apr 17:49:09 17:52:52 67° 75° (ENE) 17:56:38 437.200
XW-2C 26 Apr 17:50:18 17:54:00 66° 75° (ENE) 17:57:45 145.795 - 145.815
STARS 26 Apr 17:51:22 17:55:40 54° 101° (E) 17:59:56 437.465
ITUPSAT 1 26 Apr 17:52:42 17:54:08 11° 306° (NW) 17:55:34 437.325
CUBESAT XI-V 26 Apr 17:55:28 18:00:10 66° 287° (WNW) 18:04:49 437.345
XW-2F 26 Apr 18:16:00 18:19:41 64° 259° (W) 18:23:24 145.980 - 146.000
CUTE-I 26 Apr 18:16:22 18:21:43 78° 256° (WSW) 18:27:05 437.470
NUDT-PHONESAT 26 Apr 18:28:05 18:31:40 55° 259° (W) 18:35:19 437.300
CUTE 1.7 + AOD 2 26 Apr 18:28:50 18:32:23 27° 66° (ENE) 18:35:57 437.475
RS-15 26 Apr 18:30:17 18:39:59 30° 258° (WSW) 18:49:24 29.354- 29.394
DOVE 4 26 Apr 18:36:46 18:41:34 34° 265° (W) 18:46:18 437.250
XW-2A 26 Apr 18:40:43 18:43:42 30° 70° (ENE) 18:46:41 145.665 - 145.685
SEEDS 26 Apr 18:49:03 18:52:39 28° 67° (ENE) 18:56:17 437.485
KKS-1 26 Apr 18:56:30 18:59:34 19° 299° (WNW) 19:02:36 437.445
Oscar 11 26 Apr 19:05:58 19:06:20 10° 56° (NE) 19:06:44 .
XW-2D 26 Apr 19:07:08 19:09:36 17° 269° (W) 19:12:05 145.860 - 145.880
O/OREOS (USA 219) 26 Apr 19:09:10 19:13:13 29° 54° (NE) 19:17:12 437.305
HO-68 26 Apr 19:10:40 19:17:49 86° 71° (ENE) 19:25:03 435.675
XW-2B 26 Apr 19:14:27 19:16:36 15° 270° (W) 19:18:45 145.730 - 145.750
UWE-3 26 Apr 19:20:05 19:23:40 27° 67° (ENE) 19:27:13 435.000/436.395/437.385
KAITUO 1B 26 Apr 19:24:34 19:26:29 14° 270° (W) 19:28:24 145.475/437.950
LilacSat-2 26 Apr 19:26:47 19:27:36 11° 272° (W) 19:28:26 437.200
XW-2C 26 Apr 19:27:48 19:28:39 11° 272° (W) 19:29:31 145.795 - 145.815
STARS 26 Apr 19:28:36 19:31:38 19° 299° (WNW) 19:34:38 437.465
CUBEBUG 2 26 Apr 19:32:17 19:36:33 57° 73° (ENE) 19:40:42 437.445
CUBESAT XI-V 26 Apr 19:36:18 19:36:37 10° 306° (NW) 19:36:56 437.345
AAUSAT CUBESAT 2 26 Apr 19:56:37 20:00:45 71° 74° (ENE) 20:04:55 437.432
CUTE-I 26 Apr 20:01:03 20:02:39 11° 275° (W) 20:04:14 437.470
CUTE 1.7 + AOD 2 26 Apr 20:04:19 20:08:06 32° 264° (W) 20:11:57 437.475
STRAND 1 26 Apr 20:04:49 20:09:52 58° 101° (E) 20:14:54 437.568
NO-84 26 Apr 20:08:10 20:11:42 52° 141° (SE) 20:14:57 435.350 FM
XW-2A 26 Apr 20:14:13 20:16:32 17° 267° (W) 20:18:52 145.665 - 145.685
ZACube-1 26 Apr 20:15:06 20:19:12 58° 72° (ENE) 20:23:17 437.345
AO-85 26 Apr 20:19:25 20:22:58 31° 43° (NE) 20:26:36 145.980
AO-73 26 Apr 20:21:59 20:26:06 62° 73° (ENE) 20:30:12 145.935
SEEDS 26 Apr 20:24:35 20:28:16 30° 265° (W) 20:32:01 437.485
M-CUBED/EXP-1 PRIME 26 Apr 20:32:44 20:37:01 74° 107° (ESE) 20:40:57 437.505
Oscar 11 26 Apr 20:37:24 20:41:42 77° 75° (ENE) 20:46:01 .
DELFI C3 26 Apr 20:42:01 20:45:21 26° 67° (ENE) 20:48:43 145.870
O/OREOS (USA 219) 26 Apr 20:48:27 20:52:42 37° 253° (WSW) 20:56:53 437.305
BEESAT 2 26 Apr 20:53:06 20:54:39 12° 25° (NNE) 20:56:11 435.950
BEESAT 3 26 Apr 20:53:37 20:56:33 19° 35° (NE) 20:59:26 437.485
UWE-3 26 Apr 20:56:16 21:00:03 31° 264° (W) 21:03:49 435.000/436.395/437.385
HO-68 26 Apr 21:01:22 21:06:25 20° 271° (W) 21:11:31 435.675
CUBEBUG 2 26 Apr 21:10:54 21:13:31 15° 270° (W) 21:16:05 437.445
OBJECT BX 26 Apr 21:23:08 21:26:40 52° 72° (ENE) 21:30:14 145.990 - 145.960
AAUSAT CUBESAT 2 26 Apr 21:35:04 21:36:42 12° 272° (W) 21:38:20 437.432
STRAND 1 26 Apr 21:44:46 21:48:40 23° 300° (WNW) 21:52:33 437.568
PRISM 26 Apr 21:44:56 21:48:10 21° 93° (E) 21:51:21 437.425
NO-84 26 Apr 21:46:13 21:49:21 32° 339° (NNW) 21:52:15 435.350 FM
ZACube-1 26 Apr 21:53:31 21:55:51 15° 270° (W) 21:58:11 437.345
TIGRISAT 26 Apr 21:56:46 21:59:42 18° 91° (E) 22:02:38 435.000
AO-85 26 Apr 21:59:46 22:03:21 33° 241° (WSW) 22:07:03 145.980
AO-73 26 Apr 22:00:40 22:02:45 13° 271° (W) 22:04:51 145.935
ESTCUBE 1 26 Apr 22:02:15 22:05:17 18° 61° (ENE) 22:08:19 437.505/2401.250
M-CUBED/EXP-1 PRIME 26 Apr 22:08:23 22:10:50 15° 308° (NW) 22:13:11 437.505
FO-29 26 Apr 22:13:05 22:17:16 24° 93° (E) 22:21:34 435.910
DELFI C3 26 Apr 22:16:32 22:20:03 30° 265° (W) 22:23:36 145.870
Oscar 11 26 Apr 22:16:48 22:18:22 12° 273° (W) 22:19:57 .
UNISAT 6 26 Apr 22:17:22 22:21:11 30° 96° (E) 22:25:01 437.425
LO-87 26 Apr 22:26:58 22:30:25 42° 72° (ENE) 22:33:52 145.935 - 145.965
BEESAT 2 26 Apr 22:29:28 22:33:24 46° 47° (NE) 22:37:19 435.950
BEESAT 3 26 Apr 22:30:34 22:34:37 78° 235° (SW) 22:38:36 437.485
OBJECT BX 26 Apr 22:59:06 23:00:40 12° 270° (W) 23:02:17 145.990 - 145.960
DX 1 26 Apr 23:09:09 23:10:17 11° 56° (NE) 23:11:24 434.975-435.025
SPROUT 26 Apr 23:16:47 23:20:17 25° 65° (ENE) 23:23:47 437.525
PRISM 26 Apr 23:19:42 23:23:35 39° 291° (WNW) 23:27:26 437.425
NO-84 26 Apr 23:25:07 23:27:32 19° 360° (N) 23:29:50 435.350 FM
EO-79 26 Apr 23:26:44 23:28:48 13° 89° (E) 23:30:50 145.935-145.965
DUCHIFAT 1 26 Apr 23:29:13 23:30:37 11° 88° (E) 23:32:00 145.980
TIGRISAT 26 Apr 23:32:32 23:36:40 49° 289° (WNW) 23:40:50 435.000
ESTCUBE 1 26 Apr 23:37:11 23:41:38 61° 259° (W) 23:46:09 437.505/2401.250
VELOX 1 26 Apr 23:49:54 23:54:16 58° 71° (ENE) 23:58:40 145.980
UNISAT 6 26 Apr 23:54:10 23:57:51 29° 293° (WNW) 00:01:34 437.425
FO-29 26 Apr 23:57:41 00:02:41 49° 291° (WNW) 00:07:53 435.910
LO-87 27 Apr 00:01:51 00:04:04 15° 269° (W) 00:06:18 145.935 - 145.965
POLYITAN 1 27 Apr 00:04:41 00:08:29 32° 96° (E) 00:12:15 437.675
BEESAT 2 27 Apr 00:07:44 00:10:56 22° 245° (WSW) 00:14:06 435.950
UKube-1 27 Apr 00:08:58 00:12:37 27° 65° (ENE) 00:16:18 .
AIST 2D 27 Apr 00:09:26 00:12:57 73° 102° (ESE) 00:16:28 435.315
QB50P2 27 Apr 00:11:10 00:15:10 40° 98° (E) 00:19:09 145.880/145.840
BUGSAT 1 27 Apr 00:29:38 00:32:10 16° 91° (E) 00:34:42 437.445
NANOSAT C BR1 27 Apr 00:32:54 00:37:03 59° 101° (E) 00:41:10 145.865
50 SAT 27 Apr 00:33:23 00:36:52 80° 256° (WSW) 00:40:24 437.505
DX 1 27 Apr 00:41:19 00:45:42 79° 73° (ENE) 00:50:07 434.975-435.025
SPROUT 27 Apr 00:52:06 00:56:03 36° 263° (W) 01:00:01 437.525
EO-79 27 Apr 01:00:50 01:05:00 65° 286° (WNW) 01:09:08 145.935-145.965
DUCHIFAT 1 27 Apr 01:02:38 01:06:48 75° 286° (WNW) 01:10:58 145.980
NO-84 27 Apr 01:02:55 01:05:43 33° 22° (NNE) 01:08:24 435.350 FM
BEESAT 27 Apr 01:06:54 01:08:57 13° 55° (NE) 01:10:59 436.000
PCSat 27 Apr 01:08:37 01:10:57 13° 102° (ESE) 01:13:17 145.827
VELOX 1 27 Apr 01:28:13 01:31:05 17° 269° (W) 01:33:58 145.980
POLYITAN 1 27 Apr 01:40:39 01:44:10 27° 294° (WNW) 01:47:41 437.675
UKube-1 27 Apr 01:44:36 01:48:32 34° 263° (W) 01:52:30 .
ITUPSAT 1 27 Apr 01:45:22 01:49:16 26° 63° (ENE) 01:53:11 437.325
QB50P2 27 Apr 01:47:29 01:50:43 22° 296° (WNW) 01:53:58 145.880/145.840
BUGSAT 1 27 Apr 02:03:56 02:07:49 48° 289° (WNW) 02:11:41 437.445
NANOSAT C BR1 27 Apr 02:09:44 02:12:20 16° 299° (WNW) 02:14:55 145.865
Oscar 19 27 Apr 02:14:06 02:19:18 64° 102° (ESE) 02:24:28 437.125/150
Gurwin Techsat 1B 27 Apr 02:17:23 02:22:26 42° 98° (E) 02:27:26 435.225
DX 1 27 Apr 02:20:45 02:22:26 12° 272° (W) 02:24:08 434.975-435.025
YUBILEINY 27 Apr 02:22:46 02:24:56 11° 68° (ENE) 02:27:05 435.215
MOZHAYETS 4 27 Apr 02:33:18 02:37:22 34° 67° (ENE) 02:41:29
NO-84 27 Apr 02:40:31 02:43:14 35° 222° (SW) 02:45:51 435.350 FM
BEESAT 27 Apr 02:41:12 02:45:58 82° 72° (ENE) 02:50:44 436.000
KKS-1 27 Apr 02:47:10 02:48:22 11° 55° (NE) 02:49:35 437.445
PCSat 27 Apr 02:48:02 02:53:27 80° 121° (ESE) 02:58:55 145.827
STARS 27 Apr 03:19:03 03:19:25 10° 55° (NE) 03:19:47 437.465
